Regional Weather Roundup
Issued by NWS Newport/Morehead, NC

Home | Current Version | Previous Version | Text Only | Print | Product List | Glossary On
Versions: 1 2 3 4 5 6 7 8 9 10 11 12 13 14 15 16 17 18 19 20 21 22 23 24 25 26 27 28 29 30 31 32 33 34 35 36 37 38 39 40 41 42 43 44 45 46 47 48 49 50
000
ASUS42 KMHX 231325
RWRMHX
WEATHER ROUNDUP FOR EASTERN NORTH CAROLINA
NATIONAL WEATHER SERVICE NEWPORT/MOREHEAD CITY NC
800 AM EST MON JAN 23 2017

NOTE: "FAIR" INDICATES FEW OR NO CLOUDS BELOW 12,000 FEET
WITH NO SIGNIFICANT WEATHER AND/OR OBSTRUCTIONS TO VISIBILITY

NCZ015>017-031-032-045>047-102-103-231400-
NORTH COAST

CITY           SKY/WX    TMP DP  RH WIND       PRES   REMARKS
EDENTON        CLOUDY    58  57  95 CALM      29.26F
ELIZABETH CITY CLOUDY    58  57  97 E14       29.26F
KITTY HAWK     NOT AVBL
MANTEO         CLOUDY    59  59 100 SE7       29.28F

$$

NCZ045>047-081-094-103-104-231400-
CENTRAL COAST

CITY           SKY/WX    TMP DP  RH WIND       PRES   REMARKS
FRISCO         FOG       61  57  87 SW9       29.29S VSB 1

$$

NCZ095-097-098-100-101-231400-
SOUTHERN COAST

CITY           SKY/WX    TMP DP  RH WIND       PRES   REMARKS
BEAUFORT       CLOUDY    58  53  84 SW16      29.31R
CEDAR ISLAND   NOT AVBL
JACKSONVILLE   PTCLDY    56  54  93 SW9       29.29R
PINEY ISLAND   MOSUNNY  N/A N/A N/A SW14      29.29R
WILMINGTON     CLEAR     52  49  89 S5        29.33R


$$

NCZ011>013-027>030-043-044-078>080-089-090>093-098-231400-
COASTAL PLAIN

CITY           SKY/WX    TMP DP  RH WIND       PRES   REMARKS
AHOSKIE          N/A     54  53  98 E3        29.25F
CLINTON        CLEAR     52  50  93 SW7       29.29R
ELIZABETHTOWN  CLEAR     52  49  90 S6        29.29S
GOLDSBORO      PTCLDY    55  55 100 SW15G26   29.24R
GREENVILLE     CLOUDY    54  54 100 CALM      29.30F FOG
HAVELOCK       PTCLDY    56  54  93 S7        29.30R
KENANSVILLE    CLEAR     52  50  93 SW5       29.28S
KINSTON        MOCLDY    55  55 100 SW8       29.27R
NEW BERN       PTCLDY    57  56  96 S8        29.29R
RICHLANDS      PTCLDY    55  52  89 SW16G22   29.30R
ROCKY MOUNT    CLOUDY    54  54 100 CALM      29.23F FOG
WASHINGTON     CLOUDY    54  54  99 CALM        N/A
WHITEVILLE     CLEAR     51  49  91 S5        29.30S

$$

AMZ130-135-150-152-154-156-158-170-250-252-270-ANZ085-086-088-633-658-670-231400-
MARINE OBSERVATIONS

STATION/POSITION TIME  TEMP    WIND        PRES    WAVE   SWELL
                       AIR SEA DIR/SP/G            HT/PER HT/PER
                 (UTC) (F)     (DEG/KT/KT) (MB)    (FT/S) (FT/S)
CHESAPEAKE LIGHT NOT AVBL
64 E VA BEACH    1250   61 56  100/ 16/ 19  993.0    6/13   3/13
DUCK             1300   57 46   80/ 17/ 23  990.7
2 E DUCK         1300      46                N/A     4/14   2/14
OREGON INLET     1300   57 50  130/  3/  6  991.4
13E OREGON INLT  NOT AVBL
HATTERAS CG      1300   61 56  230/  8/ 14  991.7
DIAMOND BUOY     1250   70 72  240/ 23/ 29  991.4    9/ 7   3/11
CAPE LOOKOUT     1300   59     230/ 12/ 16  992.0
BEAUFORT LAB     1300   57 52  230/  6/ 11  991.4
30 SE NEW RVR IN 1308   61 69  250/ 27/ 35  992.8
30 SE NEW RVR IN 1313      69                N/A     9/ 8   2/11
27 SE WRIGHTSVLE 1308   60 66  250/ 19/ 25  991.4
5 SE WRIGHTSVLE  1308   55     230/ 14/ 19  993.0
225 S CAPE HAT   1250   68 71  190/ 17/ 23  996.9   15/10  13/10
41 SE CHARLESTON 1250   63 67  230/ 19/ 25  992.3    9/11   5/11

$$



USA.gov is the U.S. government's official web portal to all federal, state and local government web resources and services.